Theta_e
314 316 316 316 316 317 317 318 319 320 320 320 319 320 320 318 320 320 318 321 320 319 319 319 319 319 319 318 320 320 320 320 320 320 320 319 318 318 317 316 316 316 314 313 311 311 310 311 310 309 306 302 299 298 299 298 296 296 295 294 294 293 293 293 292 289 283 284 284 284 283 283 281 281 280 281 280 281 282 280 281 280 280 281 281
312 314 313 315 315 316 316 316 317 317 317 318 317 319 319 319 320 319 320 321 319 319 319 319 318 318 318 319 318 319 320 320 320 319 318 317 317 318 316 315 314 315 314 313 311 309 308 308 307 305 300 303 300 298 297 295 293 293 290 291 292 291 290 291 289 288 286 282 283 283 283 283 281 280 280 279 279 280 279 280 281 281 281 280 280
309 310 311 311 313 314 313 313 312 312 314 316 315 316 317 315 314 317 318 318 316 319 318 318 317 317 317 317 318 318 319 318 318 317 316 316 316 316 316 314 313 312 311 311 311 308 306 306 306 299 295 296 295 294 291 292 292 292 290 289 291 291 289 290 290 287 286 283 282 282 282 282 281 280 280 281 280 280 279 279 280 281 281 280 281
304 306 308 309 310 308 309 308 306 307 309 312 312 313 313 311 310 314 317 316 315 316 318 318 317 316 316 316 316 317 317 317 316 315 317 315 315 315 313 313 312 312 312 311 309 307 306 303 300 295 293 296 295 292 292 292 291 290 291 289 290 290 288 287 289 288 285 283 281 282 282 281 280 280 281 280 280 279 280 280 280 280 280 281 280
298 301 302 304 302 304 305 304 306 306 308 309 309 309 309 309 308 311 313 314 316 315 314 315 316 316 316 316 316 315 315 316 317 315 314 314 314 314 313 312 311 311 311 310 303 304 302 301 297 294 293 294 293 291 290 290 289 289 289 289 288 287 286 285 285 284 284 284 282 282 282 280 278 278 280 279 279 278 278 279 280 280 280 280 280
295 298 298 301 302 301 303 303 305 306 306 306 306 306 306 307 309 308 310 315 313 313 314 313 314 315 315 315 315 315 314 312 311 312 313 312 312 312 312 311 310 310 308 306 304 302 302 301 299 296 293 294 294 292 291 290 289 289 289 288 287 287 286 285 284 284 285 284 283 281 280 279 278 278 279 279 279 278 279 280 280 279 279 279 279
291 294 295 298 301 302 303 304 304 305 305 305 302 301 303 302 304 307 305 309 311 311 311 312 311 313 313 313 313 313 313 312 312 312 312 311 311 310 308 306 305 304 304 303 302 302 302 299 296 295 295 295 296 294 291 290 289 289 289 288 287 286 285 284 283 283 283 283 282 281 280 279 278 278 278 279 280 280 280 279 279 279 279 279 278
288 291 293 294 297 299 300 299 299 300 299 299 299 298 298 298 300 300 299 303 304 306 308 309 309 309 311 311 312 311 312 312 311 310 309 309 307 307 307 306 304 301 298 298 296 295 295 296 296 295 295 295 294 292 291 290 289 289 289 287 286 286 285 284 282 282 282 282 281 280 278 279 277 277 278 278 278 279 280 280 280 279 277 278 278
289 289 291 292 294 294 294 294 295 296 295 296 296 297 298 298 297 298 299 302 302 304 306 307 307 307 306 307 308 307 308 308 307 306 306 306 306 306 305 303 301 299 295 293 292 292 292 292 293 292 292 291 291 291 291 292 291 290 288 287 286 286 285 283 282 281 282 281 279 279 278 278 278 277 276 277 278 280 281 280 279 279 277 275 274
291 290 291 292 292 293 294 294 295 295 296 297 297 295 294 293 293 294 296 296 297 297 299 302 303 304 304 302 300 301 303 305 299 300 301 305 302 302 300 299 297 296 294 291 290 290 291 290 290 289 289 289 289 290 291 291 291 291 289 287 286 285 285 283 282 281 280 279 278 278 277 278 278 278 278 279 280 280 278 278 278 278 277 275 274
291 292 292 292 292 292 293 294 294 295 296 294 292 293 293 291 291 292 291 292 293 293 295 298 298 297 299 299 298 300 300 300 296 299 300 300 301 300 300 297 294 293 292 292 292 289 289 289 289 288 287 287 288 290 291 290 290 290 289 288 288 287 285 283 281 280 279 279 278 278 279 279 279 280 279 280 279 279 280 279 279 277 275 273 275
292 292 292 292 292 292 293 293 293 294 292 293 292 290 289 290 291 290 290 290 290 290 293 294 294 294 294 294 296 295 295 294 297 297 298 298 297 298 297 295 293 293 292 293 292 290 288 288 288 288 288 288 288 288 288 289 289 289 289 288 288 289 288 285 282 279 277 277 277 278 279 279 280 280 280 279 280 279 279 278 278 276 275 273 274
292 293 292 292 292 292 292 292 293 292 292 291 289 289 289 289 289 290 291 289 289 292 292 292 291 290 293 294 293 292 292 294 296 296 296 297 297 296 296 295 293 292 290 290 289 289 288 288 287 287 288 286 286 286 286 286 287 288 288 287 288 288 289 289 288 282 281 280 279 279 279 280 279 280 281 281 281 279 278 277 277 276 274 273 275
293 293 292 292 292 291 291 292 292 292 291 290 289 289 290 290 288 288 288 287 290 290 289 290 289 290 292 293 292 291 291 292 295 295 295 296 296 296 293 292 290 290 289 289 289 288 288 288 288 287 286 286 286 286 286 286 286 286 286 285 283 284 287 288 288 287 283 281 279 280 280 278 280 280 282 283 281 280 278 278 277 276 275 274 273
292 293 292 292 291 292 292 292 292 291 290 290 290 290 290 288 288 288 289 290 290 291 290 290 290 290 290 290 290 290 290 292 294 294 295 295 296 294 290 290 289 289 289 289 289 289 289 289 288 287 286 286 286 286 285 285 285 284 284 283 282 281 281 282 282 281 280 281 280 279 278 280 280 280 282 282 282 279 279 278 279 277 275 272 272
293 292 292 291 292 292 292 292 291 290 289 289 290 289 289 289 289 287 288 288 287 288 288 289 289 289 289 289 290 289 288 291 292 293 294 295 295 290 289 289 289 288 288 288 288 288 288 288 287 287 286 286 286 287 286 285 284 284 282 280 278 278 279 282 284 284 281 279 279 278 277 279 284 281 282 282 280 279 278 277 277 275 274 271 273
292 291 292 291 292 292 292 292 291 290 289 289 289 289 288 288 288 288 288 288 288 288 289 287 288 289 288 289 289 288 287 289 292 292 293 294 292 289 289 288 288 287 287 287 287 287 287 287 288 287 286 285 286 288 288 286 284 283 281 278 277 276 277 277 286 288 287 287 286 286 287 287 287 287 286 286 282 279 277 276 274 274 274 272 273
292 291 292 292 292 292 292 292 291 289 289 289 289 288 288 288 288 288 289 288 288 288 288 287 287 288 288 288 289 289 288 288 291 292 293 293 290 288 288 288 287 286 286 285 285 286 286 285 286 285 285 284 287 288 288 285 283 282 281 279 276 276 276 276 277 280 287 287 287 287 287 287 287 287 287 286 285 282 279 278 277 275 275 275 275
291 291 292 292 292 291 291 291 291 289 289 289 289 288 288 288 288 288 289 289 288 287 287 288 287 287 287 287 287 288 287 287 289 291 292 292 289 288 288 287 286 286 285 284 284 284 284 285 285 285 285 285 288 288 289 286 284 283 282 279 277 276 275 275 276 276 275 275 275 276 278 282 281 281 284 286 285 283 281 279 277 276 276 275 275
292 291 291 291 291 291 291 290 290 290 289 289 288 288 288 288 287 288 288 289 288 287 287 287 287 286 286 286 286 286 287 286 287 291 291 291 290 288 287 288 286 285 285 284 283 283 283 283 285 286 287 287 288 289 289 288 284 282 281 280 278 278 275 274 275 276 273 275 273 274 274 275 276 278 279 283 283 281 280 278 278 278 277 276 274
289 290 291 291 291 291 290 290 290 289 289 289 288 288 288 288 287 287 287 287 287 287 286 286 286 285 285 285 285 285 286 286 287 290 291 291 290 288 287 287 287 286 285 285 284 283 283 283 283 286 287 287 287 288 289 289 287 283 282 281 280 277 278 274 276 280 276 274 273 273 272 273 274 275 277 280 281 280 280 280 278 278 277 276 274
289 289 290 290 290 290 289 289 289 289 288 288 288 287 287 287 287 287 287 287 286 286 286 286 286 285 285 285 285 285 285 286 286 288 290 291 290 289 287 287 287 286 285 285 284 284 283 282 282 284 286 287 287 288 289 289 289 283 282 284 285 285 275 273 274 274 273 272 272 272 272 273 274 277 278 279 279 279 279 278 277 275 277 277 277
289 289 289 289 289 289 288 288 288 288 288 288 288 287 286 286 286 286 286 286 286 286 285 285 285 285 284 284 285 285 285 285 286 287 289 290 290 289 288 287 289 286 286 284 284 284 284 283 283 284 286 287 287 287 288 289 288 285 285 286 285 285 279 272 274 273 272 272 272 273 273 274 276 277 277 277 278 278 277 277 275 276 276 277 276
288 288 288 288 288 288 288 288 288 288 288 287 287 287 286 286 286 286 286 287 286 286 285 285 285 285 284 284 284 284 285 285 285 286 288 289 290 289 289 289 288 286 286 285 284 284 283 283 283 285 285 286 287 287 287 288 286 288 287 286 286 282 274 274 272 273 273 272 272 273 274 274 275 276 277 278 277 276 276 275 275 275 276 276 276
288 288 288 288 288 288 288 288 288 288 287 287 287 287 286 286 286 286 286 286 287 286 285 286 285 285 284 283 283 283 284 284 285 285 286 288 289 290 289 289 289 288 285 284 284 283 284 285 285 285 285 285 286 287 287 287 288 288 288 286 283 276 274 273 272 271 271 272 273 273 272 274 275 274 274 273 273 273 274 274 273 273 274 275 275
287 287 287 288 287 287 287 287 287 287 287 287 287 287 286 286 286 286 286 286 286 286 285 285 285 285 284 283 283 283 283 284 284 285 285 286 287 288 288 287 286 285 284 283 283 285 286 285 285 285 285 284 284 284 283 283 286 286 286 285 280 277 274 272 271 272 272 272 272 273 272 272 272 272 271 270 271 272 272 273 273 273 273 273 273
287 287 287 287 287 287 287 287 287 287 287 287 287 287 287 287 286 286 286 286 286 286 286 285 285 285 284 283 283 282 282 283 283 283 284 286 286 286 286 285 284 283 282 282 283 282 282 282 281 283 282 284 282 283 282 281 279 279 279 278 276 275 273 273 273 272 272 272 272 271 271 272 270 270 269 270 270 271 273 273 273 273 272 272 272
287 287 287 287 287 287 288 286 286 286 286 287 286 286 286 287 287 286 286 286 286 285 285 285 285 285 284 283 282 282 282 282 283 283 284 285 285 286 285 284 283 281 278 276 276 277 277 279 278 275 275 274 273 270 269 270 271 272 270 271 273 274 276 277 277 274 274 273 272 271 270 268 269 268 268 269 269 270 273 273 273 272 273 271 270
287 287 287 287 287 287 287 287 287 286 286 286 286 287 286 286 287 286 286 288 288 287 286 286 286 286 286 284 282 282 282 282 283 285 283 285 284 284 283 282 280 277 278 278 274 274 274 274 273 272 271 271 270 268 267 269 271 270 270 272 274 278 279 279 278 278 278 276 275 273 272 270 269 269 270 270 271 272 272 272 272 272 271 271 269
287 287 287 287 287 287 287 287 286 286 286 285 283 282 283 286 286 287 285 284 286 286 287 287 287 286 285 283 282 284 283 283 284 284 284 285 285 284 283 282 280 278 282 282 276 270 269 270 268 270 269 268 268 268 267 266 267 268 267 274 272 273 277 279 279 279 278 277 276 275 275 274 273 272 272 272 272 272 272 272 269 270 269 269 269
287 287 287 287 287 287 287 286 286 286 285 284 284 282 282 282 284 284 284 284 285 285 285 285 286 285 283 280 280 283 284 284 285 285 285 285 285 285 284 284 283 284 283 278 272 270 269 270 267 267 267 267 267 266 267 267 268 268 268 267 267 271 274 274 275 276 277 277 276 276 275 275 274 274 273 272 272 271 270 272 271 270 270 269 269
287 287 287 287 286 286 287 286 285 284 284 283 283 282 281 280 280 283 284 283 283 283 283 283 283 283 282 280 279 279 283 284 285 285 285 285 285 285 285 285 285 285 284 281 271 269 268 269 267 266 266 267 268 268 267 266 267 267 267 268 269 269 269 270 270 269 271 271 273 273 274 274 274 273 273 272 272 271 271 270 270 269 269 270 270
287 286 286 286 286 285 285 285 284 284 283 283 282 282 281 280 279 278 280 283 284 283 283 283 283 283 282 282 282 281 282 284 284 284 285 285 285 285 285 285 285 285 283 274 271 268 267 267 267 266 267 266 265 265 266 266 266 266 266 267 268 268 268 268 271 267 268 268 268 269 270 270 269 270 271 272 271 270 271 270 270 270 269 268 269
286 286 286 285 285 285 285 285 284 284 284 283 283 282 282 281 279 278 277 278 279 280 282 283 283 283 283 284 284 284 284 284 284 284 284 285 285 285 285 283 285 285 280 272 272 269 267 266 266 266 264 266 266 268 267 267 267 268 268 268 269 267 267 266 266 267 267 267 267 267 267 266 266 266 266 266 267 268 269 269 269 268 268 269 268
285 281 280 281 285 284 284 284 284 283 283 283 282 282 281 280 279 278 278 277 277 276 276 278 281 282 281 281 283 283 284 284 284 284 284 285 285 285 285 281 280 278 276 272 272 270 269 269 270 271 271 272 271 272 273 272 271 271 271 270 269 267 267 266 266 266 266 265 265 266 267 268 268 269 269 269 269 268 268 268 268 268 268 268 268
282 282 282 282 283 283 283 283 283 283 282 282 282 282 280 278 278 277 276 275 274 273 272 272 273 279 281 282 283 283 283 283 284 284 284 285 284 283 276 275 275 274 274 274 276 276 276 275 276 275 275 275 274 274 273 272 272 271 271 271 271 271 270 269 270 269 269 269 270 270 271 270 270 270 270 270 269 269 269 269 269 269 269 268 269
281 281 281 281 282 282 281 281 281 282 281 279 279 278 277 277 276 275 275 274 273 272 271 270 273 273 274 273 278 282 282 282 282 282 282 281 280 274 273 274 272 272 272 272 273 273 273 273 273 273 273 273 273 272 272 272 272 272 273 272 272 272 272 271 272 271 271 271 271 271 271 271 271 270 270 269 270 270 269 269 269 269 269 269 269
280 280 280 279 279 279 279 279 277 276 277 277 277 277 276 275 274 274 273 272 271 270 270 269 272 271 271 268 272 273 275 277 277 276 275 274 271 270 270 270 271 272 271 272 272 273 272 272 273 273 273 273 273 273 273 273 273 273 272 272 273 272 274 273 272 272 272 271 271 271 270 270 270 270 269 269 269 269 269 269 269 268 269 269 269
277 276 276 276 278 278 277 276 275 276 275 275 275 275 274 273 273 272 272 270 269 268 268 267 267 267 265 264 266 269 273 269 268 266 266 266 266 268 269 270 270 270 270 270 271 271 270 269 269 269 269 269 269 269 268 268 268 267 267 267 267 267 267 267 268 269 269 270 270 270 270 269 267 267 268 268 268 269 269 269 269 268 268 268 268
274 274 275 275 276 275 274 274 274 274 274 274 274 273 273 272 272 271 269 269 268 267 267 267 266 264 263 264 265 267 268 266 265 264 265 264 264 265 267 267 267 267 266 266 266 266 266 265 265 265 264 264 264 264 263 263 262 263 262 262 262 262 264 264 265 267 267 268 268 268 268 267 265 265 267 268 268 268 268 268 268 268 268 268 268
274 273 272 274 273 273 272 273 273 273 273 273 272 273 272 271 270 269 269 268 267 266 266 265 265 265 267 270 271 270 267 265 264 264 264 264 264 264 264 264 264 264 264 264 263 263 263 263 262 261 261 260 260 261 261 261 260 259 259 261 260 262 261 260 261 262 264 266 267 267 267 267 267 267 267 268 269 269 268 268 268 267 267 267 267
273 272 272 272 272 272 272 271 270 270 270 270 271 271 269 268 268 268 268 267 266 265 265 264 265 265 269 270 270 269 265 264 264 264 263 263 263 263 262 262 262 262 262 262 262 262 261 261 260 260 260 260 260 261 260 259 258 256 256 257 258 259 259 259 260 261 262 264 265 266 267 267 267 267 267 268 267 267 267 267 267 267 266 266 266
272 271 271 271 271 271 269 269 269 269 269 268 267 267 267 268 267 267 266 266 265 265 265 264 264 265 266 268 267 267 264 264 264 264 263 263 263 262 262 262 261 261 261 260 260 261 261 261 261 261 261 260 260 260 259 257 257 255 255 256 257 258 259 260 261 262 262 263 263 262 262 262 263 264 265 265 265 265 265 265 266 266 265 265 264
270 269 269 268 268 267 268 268 267 267 266 266 266 266 266 266 266 266 265 265 265 265 264 264 264 264 264 265 265 264 263 264 263 263 263 263 262 261 261 260 261 261 261 261 260 260 261 261 261 260 258 258 257 257 257 255 254 253 253 255 258 259 259 259 258 256 256 256 257 259 260 260 261 263 263 264 265 265 265 265 264 263 262 262 263
268 268 267 267 267 266 266 266 266 266 266 266 266 266 266 266 266 266 265 265 265 264 264 264 264 263 263 263 263 263 263 263 263 262 262 262 262 262 262 261 262 262 262 261 260 259 259 259 259 259 258 257 256 256 255 254 254 253 252 254 255 255 254 253 253 253 255 256 258 260 260 261 261 261 262 263 264 264 264 264 264 264 263 263 263
268 268 267 267 266 266 266 266 266 267 266 266 266 265 265 265 265 265 265 264 264 264 263 263 264 263 263 263 263 262 262 262 262 262 262 262 262 262 262 261 261 261 261 260 259 259 259 258 258 258 258 256 255 253 253 253 253 253 252 251 252 253 253 253 252 254 253 254 256 258 259 260 260 261 262 262 263 263 263 264 263 263 263 262 262
268 268 267 267 266 266 266 266 266 266 266 266 265 265 264 264 265 265 265 264 264 264 263 263 263 263 263 262 262 262 263 262 262 262 262 262 262 261 260 260 260 260 259 258 258 258 258 258 257 256 255 254 253 253 253 252 251 251 253 252 250 251 251 252 253 252 253 254 257 257 258 259 259 260 261 262 262 262 262 262 262 261 260 261 260
267 266 266 266 266 266 266 266 265 265 265 265 264 264 264 264 264 264 264 263 263 263 262 262 262 262 262 262 262 262 262 262 262 262 262 261 261 260 260 260 260 259 259 258 258 257 257 256 255 255 255 255 255 255 253 252 251 251 250 250 250 251 253 255 253 255 257 258 258 258 259 259 259 260 260 261 261 261 261 261 261 261 260 259 260
266 266 266 266 265 265 265 265 264 264 263 263 263 263 263 263 263 263 263 263 263 262 262 262 261 261 261 261 261 261 261 261 261 261 261 260 260 260 259 259 259 259 258 258 258 257 256 256 256 255 254 254 253 254 254 254 253 252 252 251 253 258 259 259 259 260 261 260 260 260 260 260 260 260 260 260 260 261 261 260 260 260 260 259 259
265 265 264 264 264 264 264 264 264 263 263 263 263 262 263 262 262 262 262 262 261 261 261 261 261 261 261 261 260 260 260 260 260 260 260 260 259 259 258 258 258 257 257 257 257 257 256 255 254 254 254 254 254 254 254 253 252 253 251 252 259 261 262 263 263 262 261 259 259 259 260 260 260 260 260 260 260 260 259 259 258 259 259 258 258
263 263 263 263 263 263 263 263 263 263 263 262 262 262 262 262 262 261 261 261 261 260 260 260 260 260 260 260 260 260 260 260 260 259 259 259 259 258 258 258 257 257 257 256 256 255 255 255 254 255 254 255 254 254 253 253 251 251 256 260 261 262 262 261 260 261 261 261 260 260 260 260 260 259 259 258 257 256 257 258 257 256 257 257 257
Wind_Speed
10 11 10 11 11 12 12 12 13 12 11 10 11 12 11 10 10 9 5 8 7 7 8 9 8 9 9 9 10 10 10 10 10 10 10 10 9 9 9 10 11 10 10 9 7 7 8 10 10 11 7 7 5 6 8 8 7 7 6 7 7 7 7 7 9 5 2 1 2 3 5 7 6 6 8 6 5 5 5 5 5 5 4 4 3
10 10 9 9 11 12 11 9 10 9 10 10 11 11 10 10 9 7 9 9 7 8 9 9 8 9 9 10 10 11 11 10 9 9 10 10 10 9 9 10 10 11 10 11 9 8 8 8 7 6 6 9 7 8 7 8 7 8 8 9 9 9 9 9 9 7 9 3 3 5 7 7 8 7 9 9 7 5 6 5 4 4 5 4 2
7 7 8 9 11 11 9 8 8 8 10 10 10 11 10 8 7 9 9 8 7 9 9 9 9 9 10 10 11 10 11 10 8 8 9 10 10 10 10 10 10 10 9 9 10 9 7 8 9 5 5 6 6 6 5 7 8 9 10 9 9 8 8 9 8 8 8 6 5 8 8 8 8 8 6 6 7 7 7 6 5 3 2 3 3
6 7 8 9 9 7 8 8 7 8 9 9 10 10 9 7 7 8 9 7 9 8 9 10 9 10 11 11 11 10 11 11 9 8 9 9 9 9 8 9 10 10 10 9 7 7 8 6 5 4 5 7 6 7 7 6 7 7 8 9 9 10 9 8 9 8 7 7 6 9 8 8 4 3 5 4 6 6 5 3 3 3 3 3 4
6 7 7 8 7 7 8 7 8 9 11 9 10 9 8 8 8 10 9 9 9 8 8 8 9 10 11 10 11 10 9 9 11 11 9 8 9 9 9 9 9 9 8 8 7 6 7 8 6 6 7 8 7 7 5 6 5 5 7 7 8 6 5 7 7 5 6 8 6 4 4 3 1 2 6 7 4 3 1 3 3 4 4 3 4
6 6 6 7 7 8 8 8 10 10 10 8 9 8 8 7 8 7 8 9 8 8 9 8 9 9 9 10 10 11 10 8 6 7 9 9 9 8 8 8 8 8 7 6 7 7 7 8 8 9 9 10 9 8 8 10 7 7 8 8 8 7 8 7 7 6 7 7 9 6 4 7 4 3 5 5 6 4 3 3 3 4 4 4 4
4 5 6 7 7 9 9 9 8 8 8 7 5 5 6 5 6 7 6 7 7 8 8 9 9 9 9 8 8 7 7 8 8 8 7 7 7 8 7 5 5 6 6 6 6 6 7 7 7 8 10 10 9 10 9 8 9 10 10 10 8 9 9 8 7 7 6 6 4 5 7 5 4 5 3 3 1 3 6 4 6 5 5 6 4
4 5 5 7 8 8 7 5 5 5 4 4 4 4 4 4 5 4 4 6 6 6 7 8 7 7 7 7 7 7 7 8 7 6 6 6 6 6 7 8 7 5 5 6 5 5 5 6 7 8 8 7 6 6 9 10 9 10 8 7 8 8 8 7 7 6 7 7 7 7 6 6 4 2 3 3 2 5 7 7 9 5 5 3 3
5 5 5 7 7 4 4 4 3 3 3 3 4 4 5 5 5 5 5 6 6 6 6 6 7 7 6 6 6 6 7 6 5 6 5 5 6 7 6 6 6 6 5 4 4 4 4 5 5 5 5 7 10 10 11 11 10 9 7 7 7 8 7 6 6 7 5 7 5 4 6 6 7 6 6 7 11 12 6 8 7 3 2 1 2
7 7 8 8 5 4 4 4 5 4 5 6 6 5 5 5 6 5 6 6 5 5 5 6 6 6 6 6 5 4 5 5 7 11 9 7 5 5 5 6 6 6 6 5 4 4 4 4 4 8 9 11 12 14 16 16 13 10 10 10 9 7 7 7 7 7 7 8 8 9 8 8 10 11 10 10 7 2 4 7 7 3 2 2 3
7 7 8 5 5 5 5 5 5 6 6 5 5 6 5 5 5 4 4 4 5 5 6 6 6 5 6 5 5 5 5 5 9 10 11 11 7 6 7 6 5 5 5 6 6 5 4 4 4 6 7 8 10 14 13 11 10 8 7 10 10 12 9 7 7 8 9 8 7 7 9 10 10 9 10 7 6 9 7 6 5 4 5 3 6
8 7 6 5 6 6 6 6 6 5 5 6 5 5 4 4 4 4 4 4 4 3 5 5 5 5 5 5 5 5 5 7 10 10 10 11 9 6 5 6 6 6 6 6 5 4 4 3 2 3 4 6 5 5 5 5 6 6 5 9 10 10 9 12 11 8 7 8 8 9 9 9 9 8 8 5 8 6 4 4 5 5 5 5 3
7 6 5 6 6 6 6 6 6 6 6 5 5 5 4 4 4 4 4 4 4 5 5 5 4 4 6 6 5 5 5 7 10 10 10 11 11 9 5 6 7 5 4 3 4 4 5 5 4 3 2 2 2 3 3 3 6 9 9 9 10 12 10 8 5 6 9 10 10 10 11 9 7 9 10 8 4 6 4 4 5 5 3 4 6
7 6 6 6 6 6 7 7 7 6 6 6 5 5 5 5 4 4 4 4 4 4 4 5 5 5 5 6 6 5 5 7 9 10 11 12 11 8 4 4 4 4 5 6 6 6 6 6 5 4 3 4 5 5 6 6 6 6 6 5 5 8 10 10 7 7 8 8 7 9 7 4 8 3 3 4 6 7 7 8 5 6 6 6 1
7 7 7 7 6 7 7 7 7 7 7 7 6 6 5 4 4 4 5 6 6 6 6 5 5 5 5 5 5 5 5 7 8 9 9 9 10 7 5 5 5 4 5 5 5 6 6 6 5 5 5 6 6 6 6 6 6 5 5 5 5 5 5 5 5 4 4 5 6 5 3 5 4 1 5 7 5 2 4 3 5 3 2 2 3
8 7 8 8 8 8 8 8 7 7 7 6 7 6 6 7 7 5 4 4 3 3 3 4 6 6 5 5 5 5 4 6 7 7 8 8 10 5 5 6 6 5 5 4 4 5 5 6 5 5 5 5 6 9 6 5 5 6 6 5 4 2 3 3 4 4 4 4 4 3 2 2 5 4 6 7 6 6 7 6 6 5 5 2 5
10 10 10 9 9 9 9 9 9 8 8 8 7 7 7 7 5 5 5 5 5 5 5 4 5 6 5 5 5 4 3 4 6 8 9 11 8 5 6 5 5 5 5 5 4 4 4 5 5 5 4 4 6 10 9 6 4 5 5 4 3 2 3 1 2 5 5 5 5 5 5 6 7 8 10 12 10 9 7 6 5 6 5 5 5
10 10 11 11 10 10 9 9 10 9 8 9 8 7 7 6 6 6 6 6 5 5 4 3 3 4 5 5 5 5 4 5 8 9 12 12 9 7 5 5 5 5 5 3 3 3 3 6 5 4 4 3 7 9 10 7 4 4 4 4 4 4 3 1 0 2 5 6 6 6 6 7 7 9 10 12 14 11 9 9 7 8 7 7 8
10 12 13 11 10 10 10 9 9 9 9 9 9 9 9 8 6 6 6 6 5 4 4 4 3 2 2 3 4 4 4 4 5 8 11 12 9 6 6 6 6 4 5 4 3 3 2 2 4 4 4 5 9 10 11 9 5 5 4 4 4 4 3 4 3 2 2 3 2 3 2 3 3 3 5 12 13 10 5 3 7 9 9 7 6
14 8 7 9 10 10 10 10 10 10 10 8 7 7 5 5 6 6 5 5 5 5 4 4 5 3 2 2 2 2 3 2 2 7 10 11 9 7 6 7 6 6 4 5 4 3 3 3 3 5 6 7 8 9 10 10 6 4 4 4 4 5 3 5 4 5 4 4 3 2 2 1 2 2 3 4 6 6 6 3 5 7 7 6 6
7 8 8 9 10 11 9 10 10 8 7 7 6 5 5 5 5 5 5 4 5 5 5 4 4 4 2 2 3 2 3 4 3 7 9 10 9 9 5 5 5 6 5 5 5 5 4 3 3 5 7 8 8 8 9 10 8 5 5 6 4 3 6 5 4 7 5 4 4 3 3 3 3 3 4 5 6 6 6 4 4 5 6 6 6
8 8 10 11 10 10 9 7 7 8 6 7 7 6 4 4 5 5 4 5 6 6 5 5 5 4 3 2 3 3 2 4 4 7 9 11 10 8 6 4 6 7 6 5 4 3 4 4 4 5 8 8 8 8 9 9 10 6 5 6 7 8 5 4 5 5 5 4 5 4 4 4 4 5 5 5 5 5 5 5 3 4 5 5 6
9 10 10 10 10 10 9 9 9 7 8 7 8 7 5 5 5 5 7 6 7 7 6 6 6 5 4 3 2 3 3 2 6 6 10 12 11 9 9 7 8 7 7 6 5 4 3 4 4 7 7 7 8 9 8 9 7 5 8 9 8 9 8 6 6 6 6 5 5 6 5 5 5 6 5 6 5 4 4 4 4 4 5 3 3
8 9 9 9 9 9 9 9 8 7 8 8 7 8 7 6 6 6 6 7 7 7 6 6 6 6 6 4 3 3 2 3 3 6 8 12 12 12 11 10 9 6 6 5 5 5 4 4 4 7 7 7 7 7 8 7 4 7 10 10 10 9 6 6 5 6 5 5 4 5 6 5 4 5 6 5 4 4 3 3 3 2 2 4 3
10 10 10 10 10 8 8 8 8 8 8 9 9 8 8 8 7 5 7 6 7 7 7 6 7 7 6 6 5 4 3 3 3 4 7 11 12 12 12 12 10 10 6 5 6 5 6 8 8 8 7 6 7 6 5 6 7 8 8 10 8 5 5 5 5 4 4 4 5 4 3 3 4 3 1 1 1 1 1 1 1 1 1 2 3
12 12 10 9 9 9 10 8 8 8 8 7 8 7 8 8 7 7 6 6 6 7 7 7 7 7 7 7 6 6 5 4 4 4 4 7 8 11 11 11 11 9 8 7 9 10 10 9 9 7 7 5 4 3 3 3 5 7 7 7 4 4 4 4 3 3 4 3 3 4 4 1 1 1 1 2 2 3 2 2 2 4 3 4 4
10 9 10 9 9 10 11 9 9 8 8 7 6 7 7 7 7 7 7 7 6 6 7 8 7 7 7 7 6 6 6 5 5 5 4 5 5 7 8 7 9 10 7 6 7 6 7 7 6 6 6 7 7 5 5 3 2 2 1 2 3 4 3 4 5 5 3 2 3 3 2 1 1 2 1 2 2 2 2 2 3 4 3 3 4
12 12 12 10 10 10 10 11 10 8 8 8 8 7 7 7 8 9 9 8 8 7 7 7 8 8 8 7 6 5 5 6 6 7 6 5 5 5 5 6 6 5 6 5 6 6 7 7 8 6 7 6 6 5 5 5 4 4 3 3 2 3 3 3 3 1 1 1 1 0 0 1 0 1 1 1 2 2 2 3 3 4 3 2 2
8 9 9 9 9 9 8 9 9 9 8 7 5 5 7 6 6 4 3 5 8 9 8 6 6 7 8 10 9 7 6 7 8 4 5 6 8 8 7 6 6 6 7 10 8 7 7 7 7 6 6 6 5 4 3 3 3 3 2 3 2 2 3 3 2 2 3 2 3 2 3 1 1 1 2 2 3 3 2 3 3 4 3 2 6
9 9 9 8 8 9 8 8 8 8 9 8 8 6 6 5 3 6 5 3 3 2 5 6 8 7 6 3 4 8 10 8 8 10 9 9 8 7 8 9 9 8 11 13 8 7 6 6 5 6 6 6 6 4 3 3 2 1 2 2 2 2 2 2 2 2 1 2 2 2 3 3 3 3 3 4 3 3 3 4 3 2 3 4 6
8 8 9 9 10 9 9 9 8 8 8 9 8 8 6 6 9 8 4 4 7 7 6 6 8 6 8 7 3 4 9 12 13 11 11 10 10 11 12 13 13 15 14 9 6 6 6 7 5 6 4 6 5 4 3 3 2 1 1 0 0 1 2 2 2 1 1 2 2 2 2 3 3 3 4 4 3 3 3 3 3 3 5 5 6
10 10 9 8 10 9 8 9 9 9 8 8 8 9 8 7 6 8 8 6 7 8 9 9 9 8 7 9 9 6 8 11 13 12 12 12 12 12 14 14 15 15 13 10 7 6 6 7 6 6 6 5 3 3 3 3 2 2 1 1 0 1 2 3 1 2 3 3 3 3 3 3 3 3 3 3 3 3 3 3 3 4 5 5 6
9 9 9 9 10 10 9 10 10 10 11 10 10 9 9 9 9 6 6 10 10 9 9 10 11 11 12 9 10 11 9 10 13 13 13 13 14 13 14 15 15 15 11 7 7 6 5 6 6 5 4 4 3 3 2 2 2 2 3 3 1 1 2 2 1 2 3 4 2 3 3 3 3 4 3 3 3 4 4 4 4 4 4 5 6
6 7 9 10 11 10 10 10 10 10 9 9 9 9 9 9 9 9 8 8 7 8 10 10 11 13 12 12 11 11 11 11 12 13 13 13 13 15 14 11 14 12 8 7 6 6 6 6 5 5 4 3 4 3 2 2 2 2 2 2 3 1 1 0 1 1 1 1 2 2 1 2 4 2 4 2 4 3 4 4 4 4 5 6 6
5 6 9 9 8 8 8 8 9 9 9 10 10 10 10 9 10 10 9 9 8 7 5 5 6 7 8 8 11 11 11 11 11 11 12 13 14 15 13 9 8 6 5 4 5 5 5 6 6 5 5 4 4 4 3 2 3 2 2 1 0 0 1 0 1 1 1 1 1 2 3 3 3 4 4 4 3 4 5 4 4 5 6 6 6
5 5 6 8 7 7 7 8 8 9 9 9 9 9 9 10 9 9 8 7 8 8 5 5 4 6 10 10 11 11 12 12 12 11 11 12 14 13 8 6 6 5 5 4 4 4 4 4 5 4 4 3 3 3 2 2 2 1 1 1 0 0 0 1 1 1 1 1 3 3 3 3 4 4 3 3 4 5 5 5 5 5 5 5 5
6 5 5 5 5 6 6 7 7 7 7 7 7 8 9 8 7 9 8 9 8 7 7 6 6 7 7 6 8 14 16 15 16 15 14 12 11 8 6 6 7 6 6 5 5 5 5 4 5 4 4 4 4 4 3 2 2 2 1 1 1 0 0 1 1 1 2 2 3 3 3 4 4 3 4 4 4 4 4 4 5 5 5 7 7
5 6 5 5 5 5 6 6 6 8 7 7 7 8 8 8 9 9 9 9 9 9 8 6 5 7 8 4 4 5 10 13 15 12 10 10 8 7 7 6 6 6 5 4 4 5 5 5 4 5 4 4 4 4 4 4 4 4 4 4 3 2 3 2 2 1 1 2 2 3 3 3 4 3 3 4 4 4 4 4 4 5 6 6 5
5 7 8 8 6 6 6 6 6 7 6 7 7 7 7 8 8 8 8 8 8 8 7 7 6 6 5 4 6 5 8 6 6 6 6 6 6 5 6 6 6 5 4 4 4 5 5 5 4 4 4 4 4 4 4 3 3 3 3 3 3 3 3 3 3 3 2 3 2 2 3 3 3 3 3 3 4 4 5 5 5 5 6 6 5
6 5 6 9 6 6 6 5 6 6 5 7 7 7 8 8 8 8 8 9 8 8 7 7 6 5 3 3 5 6 8 7 7 6 7 6 6 5 5 6 5 5 5 4 4 5 6 5 4 5 5 4 4 4 4 4 4 4 3 3 2 1 2 2 2 2 2 2 3 3 4 4 3 3 3 3 4 4 5 5 5 5 5 5 6
5 6 6 5 7 7 6 6 6 7 6 6 7 7 7 7 7 7 8 8 8 7 6 6 5 4 4 5 7 8 8 8 7 6 6 6 6 6 5 5 5 5 4 5 5 5 5 5 5 5 5 5 5 5 4 4 4 4 3 2 1 1 1 2 2 2 3 3 3 3 3 4 3 4 3 3 5 5 4 4 4 4 5 5 5
7 7 7 6 7 7 7 5 5 6 7 6 7 7 6 7 7 7 7 7 7 7 7 6 5 5 9 14 12 13 10 7 7 7 6 6 6 6 5 5 4 4 4 4 5 5 5 5 5 5 5 4 4 4 4 4 4 4 3 1 1 0 0 1 1 2 2 2 3 3 3 4 4 4 4 5 3 3 4 4 5 4 4 5 4
7 7 7 6 7 7 7 7 7 7 7 7 7 6 7 8 7 7 8 7 7 7 7 7 6 6 7 10 11 12 8 7 6 6 6 5 5 5 4 4 4 4 4 4 3 4 4 5 5 4 4 4 4 4 4 4 4 3 2 1 0 0 0 1 1 1 1 2 3 4 4 4 5 4 4 4 4 4 4 5 5 4 4 4 4
7 6 6 8 8 8 7 7 8 7 7 8 8 7 7 7 7 7 8 8 7 6 7 7 6 6 6 7 8 10 8 7 6 6 6 6 5 5 4 4 4 4 4 4 2 3 4 5 4 3 4 3 3 2 3 2 3 2 2 2 0 1 1 1 1 1 1 1 2 2 3 4 4 4 4 5 4 5 5 5 5 4 4 4 5
8 8 8 6 8 10 9 8 8 9 9 8 8 7 6 7 7 7 7 7 7 7 6 5 5 5 7 7 6 6 6 6 5 6 5 5 5 4 4 4 3 3 3 2 3 3 4 4 4 4 3 3 3 2 1 1 1 1 2 3 3 3 3 3 3 2 0 0 1 2 3 3 3 3 4 4 5 5 5 4 4 5 5 5 4
7 7 8 8 7 7 7 7 7 8 8 8 9 8 7 7 7 7 7 6 5 5 5 5 5 5 4 4 4 4 5 5 5 5 5 4 4 4 3 3 2 3 3 2 2 3 3 4 4 3 3 1 1 1 0 0 0 0 1 2 4 5 4 3 2 1 1 1 2 2 2 3 3 4 5 4 4 5 5 5 4 4 4 4 4
6 6 8 7 6 8 8 8 8 8 8 8 8 8 8 10 9 8 7 8 6 6 5 5 5 4 4 4 4 4 4 3 4 3 3 3 4 4 3 3 3 3 2 2 2 2 3 3 3 3 1 0 0 0 1 1 1 1 1 2 3 3 3 2 2 3 3 3 3 2 3 2 3 4 5 5 5 5 5 5 4 4 5 5 4
10 9 10 9 9 9 9 9 10 9 9 9 8 9 10 8 9 8 6 6 6 6 5 5 5 4 4 3 3 3 3 3 3 3 3 3 3 2 3 3 3 2 2 2 2 2 2 2 2 2 1 0 0 0 1 1 2 2 3 2 3 3 4 4 3 3 4 4 4 4 4 3 3 4 5 5 4 4 4 5 5 5 5 4 5
7 8 9 9 10 11 10 9 11 8 8 8 11 10 7 6 7 6 5 5 5 4 4 4 4 4 3 3 3 3 3 3 3 3 2 2 2 2 3 3 2 2 2 1 1 2 1 1 1 2 1 1 1 2 2 2 3 2 2 2 3 7 8 7 5 4 5 5 4 3 3 3 4 4 4 4 4 5 5 5 4 4 3 3 3
12 13 13 13 12 10 11 12 13 12 11 8 6 6 6 6 5 4 5 5 4 4 4 3 3 3 3 3 3 3 3 3 3 3 2 2 2 2 2 2 3 2 3 2 2 1 1 1 1 1 1 2 2 2 3 3 3 3 2 3 6 7 6 5 5 4 2 1 2 3 3 4 4 5 4 4 4 4 5 4 4 5 3 3 3
6 6 6 7 7 6 9 8 6 7 6 5 5 5 5 5 5 4 4 4 4 4 4 3 3 3 3 3 3 3 3 3 2 2 2 2 2 3 3 3 3 2 2 2 2 1 2 2 2 2 1 2 2 3 3 4 3 3 5 7 7 7 5 5 2 4 6 5 3 3 3 3 4 4 4 4 4 4 6 5 5 4 4 3 3
Wind_Direction
203 211 204 210 212 211 211 209 213 214 215 209 211 216 220 216 217 219 196 209 197 190 200 202 200 203 207 210 216 217 216 217 215 214 214 217 215 214 214 214 219 223 222 224 218 215 216 222 219 219 204 198 193 188 197 196 179 182 181 185 197 202 192 204 219 238 24 98 86 151 151 146 171 179 171 172 167 183 190 190 185 177 179 182 184
205 209 204 207 212 216 215 211 213 211 213 213 213 217 219 215 213 204 208 214 192 196 203 203 203 204 209 215 218 220 220 219 215 214 216 217 218 213 215 214 218 224 220 222 218 217 218 223 228 215 183 204 190 201 198 182 176 182 188 185 195 197 194 183 214 195 216 139 159 119 157 179 176 188 180 171 184 182 190 196 201 191 173 164 152
203 203 202 205 215 217 213 212 204 205 209 213 215 216 218 213 198 205 210 212 194 198 203 202 203 204 211 217 219 220 221 221 219 215 217 218 218 217 215 213 215 218 216 218 218 208 203 211 227 189 150 187 193 195 165 185 198 191 189 191 194 195 189 197 185 213 205 201 159 159 179 189 192 184 191 187 182 182 185 196 183 188 174 158 153
200 202 208 215 216 210 211 208 196 203 208 211 214 214 212 206 195 204 208 204 203 206 203 203 202 206 214 218 221 223 221 220 220 218 218 218 220 218 213 213 213 216 218 221 221 209 212 213 213 165 173 195 203 188 197 200 191 195 192 198 193 192 186 189 204 198 188 166 197 189 188 174 201 160 181 176 177 190 198 176 172 165 172 181 178
199 210 208 215 213 210 215 202 203 208 211 208 213 208 205 202 196 203 204 208 210 201 205 207 209 211 215 216 219 220 220 217 219 216 214 212 212 214 214 212 215 218 220 222 213 192 187 196 173 162 173 198 197 196 181 201 201 188 198 187 189 182 165 183 199 187 168 189 168 189 152 164 114 169 174 171 185 200 181 197 189 185 188 193 179
210 203 205 209 213 212 214 206 212 214 213 214 212 208 204 204 203 207 203 209 204 204 202 204 209 216 217 219 216 215 216 216 212 213 212 212 213 215 216 215 214 215 214 214 201 186 184 190 189 182 182 195 204 194 183 192 182 192 194 191 182 164 175 192 195 193 182 185 166 151 179 178 171 191 196 181 163 186 215 225 212 201 190 203 207
207 205 203 209 210 214 211 212 212 214 214 216 210 205 206 204 200 206 197 205 204 205 207 207 210 214 216 212 211 208 209 212 217 219 217 214 210 211 213 208 209 209 210 200 192 198 203 197 183 186 195 202 197 190 182 181 182 198 200 192 177 170 182 189 182 180 176 157 165 173 164 187 162 189 183 175 195 191 204 206 247 203 203 187 214
185 204 201 215 221 218 215 212 213 219 218 209 200 198 190 190 199 195 181 199 206 205 205 207 210 206 213 211 213 211 215 219 215 215 217 212 204 206 205 206 206 200 199 203 197 190 188 188 192 191 198 199 190 166 169 184 187 203 204 177 177 176 182 177 173 172 169 175 172 171 176 165 153 91 96 128 218 264 222 205 225 213 208 198 202
191 195 198 213 220 211 204 206 198 195 188 187 190 192 192 194 193 193 193 201 203 209 208 206 207 211 215 216 217 214 209 210 204 203 201 205 203 208 206 199 194 196 192 176 163 169 175 180 184 186 188 192 189 184 190 187 184 196 189 182 178 183 177 170 176 169 173 165 144 121 156 167 191 164 164 187 200 212 192 185 231 223 131 181 254
199 202 210 214 198 189 187 183 184 184 187 193 195 188 184 182 180 185 197 202 205 207 207 206 203 203 205 214 214 200 201 202 200 197 196 195 187 180 167 179 186 186 180 172 172 185 184 178 180 175 178 183 188 193 200 201 197 190 178 178 179 179 179 172 177 181 170 173 181 165 177 199 193 198 197 210 201 113 152 176 210 188 102 268 272
207 204 215 199 185 177 181 186 176 186 184 169 164 159 158 156 156 163 168 175 188 194 190 193 196 196 194 193 192 195 195 189 184 184 186 179 173 177 181 181 172 168 171 176 187 188 189 183 174 173 176 189 199 204 206 201 200 205 183 191 187 178 171 178 188 179 179 188 179 181 191 199 207 202 210 194 190 200 196 184 174 137 176 184 249
200 207 204 184 185 183 188 180 180 180 162 163 155 149 142 143 147 153 148 153 157 150 156 178 182 171 168 174 181 180 179 177 170 175 175 173 168 168 164 161 166 173 181 189 190 173 164 159 172 156 178 196 197 206 208 206 207 211 198 198 210 212 192 179 178 187 191 176 181 201 191 206 202 191 208 186 207 206 204 170 184 174 170 194 208
195 197 186 183 186 183 180 180 179 172 172 154 148 138 138 139 145 149 172 177 147 159 169 156 172 166 154 159 173 179 182 187 172 170 172 171 170 165 171 168 171 180 171 163 152 151 156 164 166 183 178 148 115 120 133 163 195 203 210 204 210 208 206 209 213 202 178 187 190 200 201 194 196 211 199 198 157 192 165 187 194 195 181 190 215
189 187 178 184 181 177 177 177 176 174 162 154 148 147 149 167 172 166 147 153 166 165 160 162 159 168 172 169 173 181 180 194 184 181 178 176 175 164 148 146 142 149 163 163 158 158 166 170 175 173 137 143 160 159 163 176 182 188 199 200 204 215 218 216 207 167 168 198 194 207 218 175 209 221 182 140 159 192 182 209 180 186 197 208 106
190 185 182 182 176 175 175 175 172 168 165 161 159 163 165 162 169 177 171 174 175 176 172 169 178 173 172 165 162 174 189 186 186 180 173 166 163 144 129 127 130 137 150 155 149 156 168 169 160 157 159 176 186 177 177 178 172 186 195 209 206 206 209 215 212 190 175 190 205 222 192 195 211 119 147 152 157 131 162 180 184 183 127 70 50
192 183 187 187 185 180 174 172 169 167 166 165 167 174 180 182 184 183 171 173 171 151 158 156 166 171 169 160 155 172 194 190 178 174 161 155 140 124 132 132 134 136 127 122 141 162 161 155 157 162 168 180 188 184 182 156 169 182 202 215 222 220 226 241 212 177 173 177 189 184 179 189 165 158 154 151 129 120 102 90 89 102 115 129 222
195 192 193 188 187 182 180 174 173 174 171 173 180 181 181 186 184 170 164 174 166 174 172 171 170 162 164 167 160 164 180 199 181 165 155 144 130 127 127 125 122 118 124 144 152 156 152 161 166 169 165 171 176 183 175 152 169 184 201 216 226 228 245 293 196 145 142 141 132 132 138 137 142 146 154 155 152 141 125 117 162 152 148 211 241
199 194 197 189 184 180 183 179 178 177 178 187 185 182 182 182 180 175 171 169 176 179 164 148 161 165 165 172 172 162 180 185 172 162 153 151 144 141 136 124 125 130 136 136 139 136 153 168 162 155 155 155 168 176 176 163 179 179 191 203 228 239 246 246 41 68 120 118 122 125 133 141 148 158 164 166 161 157 152 198 180 154 198 202 232
199 201 199 184 178 179 179 179 178 179 188 193 184 183 185 182 172 174 178 169 172 159 152 146 138 131 178 173 169 158 163 183 175 159 154 148 140 135 135 134 140 154 144 133 109 111 108 148 162 142 135 146 167 178 180 172 184 179 179 179 219 240 220 167 164 136 91 85 62 79 70 124 138 152 178 179 177 188 209 188 142 177 202 209 206
209 196 171 173 177 177 180 182 183 186 192 185 185 185 170 166 168 170 173 168 158 153 146 143 148 146 119 122 120 121 139 128 153 157 156 152 140 135 141 143 153 148 142 138 133 117 137 146 164 164 152 158 172 180 187 178 178 163 148 181 209 240 183 154 164 156 154 153 151 132 145 140 136 156 188 190 191 200 215 191 186 190 206 200 192
180 177 174 171 176 181 182 185 185 186 180 179 172 167 170 171 159 163 159 142 134 136 139 137 124 114 100 107 117 98 129 139 145 160 162 155 140 142 152 142 137 140 144 147 159 159 162 160 148 177 176 176 180 187 192 191 174 156 167 193 193 174 144 127 163 163 163 164 158 150 163 168 174 177 196 201 200 200 211 203 197 206 195 193 188
172 168 175 180 178 178 181 181 176 174 168 162 169 172 159 153 159 152 145 146 144 140 135 132 126 119 106 108 112 117 127 140 149 158 160 156 150 133 132 143 148 141 141 150 147 149 158 162 171 184 187 187 189 194 197 198 181 158 179 170 154 132 123 143 139 137 143 152 152 169 183 184 195 206 214 217 214 204 204 210 196 212 224 220 207
173 174 173 175 178 177 176 174 173 168 169 169 164 161 153 151 152 150 151 150 147 142 141 140 137 132 125 115 110 110 110 122 146 150 157 155 152 140 143 147 145 139 144 153 162 155 149 154 163 173 183 185 189 190 193 192 180 171 171 165 167 135 126 126 141 140 155 165 169 196 210 196 206 218 216 225 220 205 207 205 211 210 236 258 294
168 169 175 176 170 173 172 172 168 167 165 160 158 157 158 157 151 158 158 154 151 146 149 152 146 147 145 138 130 108 108 124 132 142 153 156 154 147 149 148 143 148 138 142 145 147 147 153 158 168 173 176 178 180 185 183 164 172 174 173 158 138 135 136 145 163 161 169 186 210 220 214 210 223 226 221 211 206 200 190 225 238 240 254 255
168 174 178 176 173 167 160 167 170 166 165 160 160 161 158 159 157 163 159 160 162 158 161 165 161 156 149 151 145 141 146 136 132 135 146 157 156 153 152 147 140 131 122 133 138 148 148 145 148 154 158 162 164 168 172 175 168 174 177 171 156 143 147 150 152 141 164 199 216 230 239 226 218 237 221 159 150 135 155 220 147 199 228 265 261
175 179 173 170 168 158 160 163 164 165 160 166 164 162 161 164 163 161 164 167 168 165 163 166 163 158 158 155 158 162 154 152 145 141 144 149 155 156 152 150 147 138 129 131 136 133 134 134 135 135 134 132 130 124 138 154 171 170 172 164 140 145 141 136 137 157 210 227 226 238 247 249 253 196 115 111 133 201 183 220 221 258 217 252 272
172 169 170 166 161 162 165 168 164 165 163 159 159 159 161 164 164 164 169 168 170 172 168 168 165 163 159 159 155 157 149 148 157 152 156 150 149 150 146 143 126 110 105 112 112 110 108 112 113 112 104 103 92 86 83 84 88 95 99 115 131 136 144 156 169 185 207 220 246 260 260 214 74 80 96 137 198 224 178 212 227 253 225 252 249
177 177 173 168 169 169 169 163 162 160 163 159 157 159 167 171 173 176 177 173 170 174 171 173 172 169 160 157 155 143 148 146 178 171 159 153 144 139 141 140 137 131 119 110 107 103 98 87 79 72 76 68 63 54 47 48 53 50 43 49 86 106 129 128 102 125 199 179 220 166 38 69 144 170 131 163 218 230 173 198 212 250 225 179 267
171 167 166 164 167 169 164 164 165 158 151 147 142 152 165 174 172 169 179 172 175 168 172 182 181 178 164 161 157 163 168 182 196 171 164 153 150 148 153 147 135 129 135 127 101 90 92 89 93 79 85 100 84 74 48 56 47 40 54 40 67 115 133 141 182 211 207 215 258 253 253 191 222 164 165 202 236 224 193 208 242 226 261 196 239
165 169 169 169 164 163 162 161 160 154 151 144 130 88 49 87 148 171 173 156 133 189 179 180 178 164 150 138 160 170 180 185 150 153 149 142 132 116 118 124 131 133 139 126 117 105 103 109 113 120 120 113 112 107 98 91 82 41 14 62 82 98 123 141 185 207 175 188 213 225 241 212 232 203 213 227 246 209 203 197 238 220 214 243 256
171 169 168 176 173 168 160 159 160 155 148 143 139 131 116 61 52 58 76 131 139 135 133 123 135 140 147 140 107 91 113 124 142 142 137 131 126 126 127 131 134 138 133 114 89 117 125 123 127 118 123 121 124 133 135 118 121 112 70 50 67 139 145 174 206 164 203 194 207 214 219 223 242 223 224 236 232 235 207 232 211 224 233 244 257
177 177 175 166 161 165 163 159 154 150 150 147 143 142 132 118 72 46 63 97 100 113 121 123 122 117 121 123 124 84 117 130 135 137 136 135 133 134 137 140 143 145 140 116 102 118 127 132 135 135 132 118 131 128 128 134 140 144 140 112 248 181 170 222 204 168 203 200 213 220 232 236 247 246 241 238 223 225 216 229 224 230 248 246 252
175 169 166 161 161 161 160 161 162 159 157 154 153 150 145 142 130 115 60 59 74 92 101 108 111 120 122 115 123 133 141 139 135 136 138 139 138 138 138 139 144 142 121 90 115 122 127 130 132 137 130 127 144 141 152 151 152 157 164 170 192 217 193 220 158 166 190 200 196 221 229 239 238 243 236 233 226 244 236 236 232 235 236 248 259
175 173 170 167 164 167 168 167 165 164 159 155 152 150 147 142 138 133 129 120 82 54 53 72 100 110 109 111 113 120 129 133 134 133 134 134 134 134 132 130 133 133 113 119 117 132 131 121 122 129 132 129 143 142 142 154 160 164 167 188 204 236 247 141 146 204 203 211 207 237 231 237 232 229 250 245 240 241 247 243 238 233 247 246 254
156 152 155 161 167 166 164 162 162 157 158 157 155 153 148 147 144 146 151 145 135 125 121 69 59 81 110 112 117 116 118 118 119 121 125 129 131 130 120 119 120 103 77 91 113 131 133 132 131 133 131 137 158 153 160 163 154 155 164 170 186 274 326 17 225 215 223 228 227 240 234 233 240 228 223 236 239 240 240 241 237 234 243 253 257
146 150 158 161 156 159 161 161 160 160 161 159 155 147 143 146 150 146 133 124 127 128 103 74 66 74 96 111 115 113 109 107 111 112 113 115 121 117 108 116 107 110 112 120 126 130 123 121 119 130 135 135 124 114 109 114 117 120 120 122 163 345 310 313 284 261 238 206 232 244 243 239 233 234 240 242 234 242 250 247 246 244 244 247 250
144 148 157 162 157 151 150 151 156 156 146 140 138 137 142 140 136 133 132 134 132 126 123 133 113 88 58 45 85 101 97 91 86 86 88 88 84 83 110 123 128 123 121 122 120 113 106 99 101 100 101 102 99 105 101 104 113 103 111 127 154 139 228 202 233 210 221 235 237 234 237 245 242 238 234 251 258 249 246 248 254 258 252 254 264
141 146 148 136 131 132 134 136 130 127 132 134 136 137 136 138 140 135 134 134 136 136 135 139 126 129 121 115 34 96 98 89 85 69 59 61 66 81 98 116 125 128 127 120 115 119 113 104 95 99 95 94 84 78 85 70 62 58 49 36 35 41 353 352 338 330 294 264 254 251 249 251 246 238 241 254 264 263 262 259 256 261 264 262 252
120 120 128 132 137 137 133 129 134 135 133 134 136 137 136 135 131 129 131 131 132 128 128 125 128 125 139 146 118 121 98 78 82 90 81 80 77 85 99 104 109 106 104 104 103 96 99 88 72 75 79 79 76 62 66 60 60 59 50 53 32 29 26 14 6 353 348 324 311 304 287 274 260 247 240 246 263 268 272 270 261 260 265 264 257
121 123 132 134 127 129 131 131 128 128 135 135 134 133 131 136 136 134 134 133 133 133 134 128 124 133 157 119 127 113 105 109 108 111 100 88 86 78 86 98 98 107 107 97 90 93 92 81 85 85 81 78 83 84 81 88 85 83 69 71 67 34 354 13 356 338 312 306 307 300 293 282 281 282 273 261 260 268 274 271 272 269 269 271 273
121 121 125 126 123 123 119 126 132 133 132 128 130 132 133 128 127 132 132 129 127 122 115 112 107 103 89 100 106 107 113 114 111 97 96 101 96 92 88 92 103 103 101 103 104 101 105 103 100 102 100 98 97 100 100 97 96 82 83 69 61 43 23 4 354 340 334 329 319 321 325 331 335 326 300 286 291 285 272 273 270 269 269 270 274
126 127 123 124 124 122 121 113 113 113 119 122 124 125 122 122 125 125 125 125 123 122 116 105 94 87 85 88 92 96 96 98 98 99 92 89 91 89 86 88 89 102 112 118 124 121 120 116 120 122 117 122 120 125 120 103 110 105 109 98 100 72 44 330 331 326 322 309 301 308 329 329 314 303 303 305 303 293 291 282 281 273 269 269 269
129 128 126 124 120 120 120 118 115 114 109 108 105 104 113 121 123 123 122 124 128 127 124 115 102 82 78 80 87 88 92 95 96 99 99 97 94 94 94 98 99 99 106 112 122 124 127 127 128 133 131 137 140 137 129 137 129 121 121 122 112 82 304 289 291 300 336 359 358 351 342 328 316 309 304 296 286 285 281 283 278 274 272 268 262
122 118 115 111 110 106 109 114 109 102 101 104 105 107 113 113 114 119 123 123 122 118 115 111 111 99 93 84 84 76 79 99 102 107 107 105 105 109 115 123 127 125 123 122 152 132 128 128 122 125 123 125 128 127 123 133 135 133 145 130 145 213 224 243 281 300 356 359 326 312 302 294 293 294 296 293 295 288 286 281 279 273 266 262 259
90 110 109 95 104 94 95 96 108 112 114 109 103 102 103 112 115 117 117 119 115 111 102 92 93 89 85 92 95 97 100 104 100 105 111 114 116 123 129 132 135 131 133 122 136 121 114 112 111 108 98 78 88 83 79 93 129 150 154 144 172 215 228 229 230 229 223 226 256 287 282 287 287 294 287 291 291 289 283 281 283 281 278 271 266
116 116 117 112 107 103 102 100 106 109 111 111 114 109 107 104 106 107 110 94 81 83 86 82 84 82 81 87 89 88 101 109 110 113 115 119 127 133 134 131 123 131 127 133 135 119 110 120 125 128 136 130 59 51 92 38 30 119 173 176 188 204 216 215 217 195 228 215 222 246 266 285 284 285 285 285 289 289 288 285 284 278 268 259 255
111 107 118 113 101 110 109 111 108 108 104 103 101 106 98 96 102 107 105 107 94 89 88 92 91 90 88 87 96 104 106 106 117 115 123 120 128 131 130 135 137 140 149 148 126 108 112 115 127 142 148 167 146 282 310 315 257 248 228 220 210 221 231 223 212 211 216 221 220 217 243 263 269 280 284 287 282 284 283 279 271 254 252 256 257
95 87 100 112 114 117 119 117 112 111 109 111 111 108 91 107 93 101 100 104 97 90 93 99 99 95 102 100 96 102 104 107 105 112 118 123 126 126 137 148 162 154 142 132 123 120 120 132 134 137 146 140 136 235 254 248 247 236 240 237 227 219 231 229 217 219 216 212 210 217 222 236 256 267 276 273 275 274 278 275 279 276 271 263 264
83 110 113 112 108 112 116 116 115 108 102 108 96 92 90 90 93 93 93 95 102 102 106 110 110 103 100 105 109 109 109 117 127 132 132 133 139 144 148 151 149 141 145 142 130 139 142 150 145 156 161 182 189 211 243 239 244 242 243 241 242 245 242 234 220 214 212 206 204 211 234 251 254 261 265 271 271 278 273 279 281 277 274 275 269
71 56 68 80 86 86 76 77 65 77 74 78 97 102 99 98 100 100 104 99 97 95 92 96 105 119 124 130 131 140 135 145 148 147 147 144 148 148 153 150 152 159 165 171 159 147 145 163 169 181 190 200 210 218 229 232 240 242 250 252 268 279 286 290 293 296 284 246 232 235 237 243 248 246 242 246 253 260 265 269 265 267 263 261 259
66 70 63 69 68 68 62 73 74 70 81 86 90 100 105 100 103 101 105 110 115 118 120 123 123 126 130 137 133 141 145 147 139 142 153 158 157 155 161 160 170 154 159 151 149 148 167 162 188 204 204 221 226 229 227 232 235 237 249 261 272 280 291 300 290 269 261 248 230 224 232 248 257 258 257 252 252 256 257 257 260 260 264 260 258